Погода в Пригородном

Россия / Оренбургская область     51°46′02″N   55°16′56″E
темп.,
°C
ветер,
м/с
пор.,
м/с
влажн.,
%
обл.,
%
осадки,
мм/ч
давл.,
гПа
погр.,
м
14 мая, пт
пт1423:00+19вюв44400 0.0 102543
02:00+17юв33470 0.0 102639
05:00+16юв33440 0.0 102626
08:00+19юв34430 0.0 1027154
11:00+26ююв44280 0.0 1027949
14:00+29ю44220 0.0 10262258
17:00+29ю33210 0.0 10252455
20:00+25ююв22320 0.0 102417
15 мая, сб
сб1523:00+21юв33350 0.0 102519
02:00+19юв22370 0.0 102413
05:00+17вюв22400 0.0 102513
08:00+21вюв34400 0.0 1025131
11:00+27юв33285 0.0 1025765
14:00+30ююв33221 0.0 10242662
17:00+30ююз22201 0.0 10232833
20:00+27всв11303 0.0 102211
16 мая, вс
вс1623:00+22в33400 0.0 102240
02:00+20юв34454 0.0 102252
05:00+19вюв234881 0.0 102219
08:00+22вюв34445 0.0 1023155
11:00+28ююв333143 0.0 1022831
14:00+31ю342376 0.0 10213164
17:00+31ююв332119 0.0 10203517
20:00+24ююз6104390 0.0 1021331
17 мая, пн
пн1723:00+20зюз33537 0.0 102136
02:00+20вюв11508 0.0 102011
05:00+18юв22556 0.0 102111
08:00+22в224930 0.0 1021142
11:00+27юв22355 0.0 1021818
14:00+30ююз23270 0.0 10192464
17:00+31з342331 0.0 10183363
20:00+27с33375 0.0 101742
18 мая, вт
вт1823:00+23ююв344498 0.0 101997
02:00+21сз22490 0.0 101811
05:00+19св22575 0.0 101814
08:00+22ю22515 0.0 1018183
11:00+28св11375 0.0 1018752
14:00+30св33274 0.0 10173065
17:00+31св322494 0.0 10163231
20:00+27с4737100 0.0 1016148